Regional Weather Roundup
Issued by NWS

Home | Current Version | Previous Version | Text Only | Print | Product List | Glossary Off
Versions: 1 2 3 4 5 6 7 8 9 10 11 12 13 14 15 16 17 18 19 20 21 22 23 24 25 26 27

000
ASUS45 KCYS 211110
RWRWY

WYOMING REGIONAL WEATHER ROUNDUP
NATIONAL WEATHER SERVICE CHEYENNE WY
400 AM MST SUN JAN 21 2018

NOTE:  "FAIR" INDICATES FEW OR NO CLOUDS BELOW 12,000 FEET
WITH NO SIGNIFICANT WEATHER AND/OR OBSTRUCTIONS TO VISIBILITY.

WYZ001-211200-
YELLOWSTONE NATIONAL PARK

CITY           SKY/WX    TMP DP  RH WIND       PRES   REMARKS
LK YELLOWSTONE   N/A     -9 -13  83 CALM      29.95F
W YELLOWSTONE  NOT AVBL

$$
WYZ002>013-054>058-071-098>099-211200-
NORTHERN WYOMING

CITY           SKY/WX    TMP DP  RH WIND       PRES   REMARKS
JACKSON        MOCLDY    13   6  74 N12       29.94S WCI  -1
CODY           FAIR      21  17  84 CALM      29.97F
GREYBULL       CLOUDY    20  19  96 CALM      29.99R
WORLAND        CLOUDY    20  17  88 CALM      29.97S
SHERIDAN       MOCLDY    27  18  69 CALM      29.98R
BUFFALO        CLOUDY    26  12  55 NW6       29.95R WCI  19
GILLETTE       MOCLDY    18  13  80 W3        29.94F
HULETT         CLOUDY    27  23  86 CALM      29.95F
NEWCASTLE      CLOUDY    27  25  93 NW5       29.93F WCI  21

$$
WYZ014>020-022>026-101>103-211200-
CENTRAL WYOMING

CITY           SKY/WX    TMP DP  RH WIND       PRES   REMARKS
BIG PINEY      LGT SNOW  19  15  84 N12       29.86R FOG     WCI   7
PINEDALE       CLOUDY    19  14  79 NW7       29.87R WCI  10
DUBOIS         LGT SNOW  18  14  86 CALM      29.86F
LANDER         FLURRIES  21  19  92 SW6       29.93R WCI  13
RIVERTON       CLOUDY    19  15  84 W7        29.94S WCI  10
CASPER         FLURRIES  21  20  96 N13       29.91S WCI   9
DOUGLAS        LGT SNOW  24  22  91 NE8       29.92S FOG     WCI  15

$$
WYZ021-027>030-104>119-211200-
SOUTHERN WYOMING

CITY           SKY/WX    TMP DP  RH WIND       PRES   REMARKS
EVANSTON       CLOUDY    13  11  92 W7        29.90R FOG     WCI   3
FORT BRIDGER   LGT SNOW  17  17  97 W14       29.91R WCI   3
ROCK SPRINGS   FLURRIES  20  14  77 N12       29.85S WCI   8
DIXON          FLURRIES  22  19  91 W5        29.75R WCI  15
RAWLINS        LGT SNOW  19  16  88 N17       29.78F FOG     WCI   4
LARAMIE        LGT SNOW  19  15  84 NE10      29.74F FOG     WCI   7
CHEYENNE       LGT SNOW  23  23 100 NE10      29.79S FOG     WCI  12
TORRINGTON     LGT SNOW  27  26  96 NE12      29.89F FOG     WCI  17

$$




USA.gov is the U.S. government's official web portal to all federal, state and local government web resources and services.